period_start,C,m1,H,J0,J1,J2,J3,J4,J5,JA,JB,JC,JD,JJ,JK,JN,#
2014-12-28 00:00:21,0.10,3.76,0.00,23.68,28.06,30.70,4.78,27.11,1015.24,2026.93,2226.91,2366.02,2569.30,350.07,346.41,22.04,0000 0000 0000 0000 000000
2014-12-28 00:05:22,0.13,3.76,0.00,23.69,28.05,30.67,4.78,26.98,1015.16,2026.91,2225.94,2365.29,2568.73,350.05,346.43,22.06,0000 0000 0000 0000 000000
2014-12-28 00:10:23,0.11,3.76,0.00,23.69,28.05,30.68,4.74,27.07,1015.17,2026.95,2224.98,2364.77,2568.00,349.18,345.72,22.09,0000 0000 0000 0000 000000
2014-12-28 00:15:24,0.11,3.77,0.00,23.66,28.05,30.70,4.74,27.18,1015.17,2026.93,2224.05,2364.02,2567.17,349.89,346.41,22.12,0000 0000 0000 0000 000000
2014-12-28 00:20:25,0.14,3.77,0.00,23.71,28.05,30.67,4.71,27.14,1015.16,2026.97,2223.26,2363.49,2566.71,350.37,346.71,22.15,0000 0000 0000 0000 000000
2014-12-28 00:25:27,0.08,3.77,0.00,23.67,28.05,30.71,4.71,27.27,1015.15,2026.98,2222.42,2362.95,2566.01,349.98,346.36,22.18,0000 0000 0000 0000 000000
2014-12-28 00:30:28,0.15,3.78,0.00,23.73,28.05,30.66,4.73,27.07,1015.15,2026.98,2221.58,2362.13,2565.22,349.91,346.24,22.21,0000 0000 0000 0000 000000
2014-12-28 00:35:29,0.12,3.78,0.00,23.71,28.05,30.69,4.71,27.06,1015.10,2026.98,2220.67,2361.62,2564.66,349.78,346.04,22.24,0000 0000 0000 0000 000000
2014-12-28 00:40:30,0.07,3.78,0.00,23.71,28.04,30.67,4.74,27.18,1014.97,2026.97,2219.87,2361.01,2563.97,349.67,346.04,22.27,0000 0000 0000 0000 000000
2014-12-28 00:45:31,0.14,3.79,0.00,23.77,28.02,30.66,4.81,27.07,1015.00,2026.98,2219.05,2360.31,2563.18,349.79,346.03,22.30,0000 0000 0000 0000 000000
2014-12-28 00:50:33,0.11,3.79,0.00,23.74,28.02,30.66,4.76,27.10,1014.98,2026.98,2218.13,2359.77,2562.62,350.11,346.28,22.33,0000 0000 0000 0000 000000
2014-12-28 00:55:34,0.10,3.79,0.00,23.73,28.02,30.64,4.78,27.22,1014.73,2026.97,2217.27,2359.03,2561.90,349.74,345.99,22.36,0000 0000 0000 0000 000000
2014-12-28 01:00:35,0.14,3.80,0.00,23.71,28.02,30.63,4.75,27.25,1014.67,2026.97,2216.50,2358.48,2561.09,349.76,346.03,22.39,0000 0000 0000 0000 000000
2014-12-28 01:05:37,0.05,3.80,0.00,23.70,28.02,30.65,4.77,27.10,1014.66,2026.98,2215.88,2357.98,2560.56,349.89,346.09,22.42,0000 0000 0000 0000 000000
2014-12-28 01:10:38,0.12,3.80,0.00,23.74,28.02,30.62,4.76,27.10,1014.66,2026.99,2215.02,2357.24,2560.00,350.15,346.29,22.45,0000 0000 0000 0000 000000
2014-12-28 01:15:39,0.10,3.81,0.00,23.75,28.02,30.61,4.72,27.17,1014.59,2026.99,2214.20,2356.87,2559.32,349.84,346.13,22.47,0000 0000 0000 0000 000000
2014-12-28 01:20:41,0.10,3.81,0.00,23.74,28.02,30.65,4.74,27.15,1014.25,2026.99,2213.38,2356.08,2558.97,349.97,346.27,22.50,0000 0000 0000 0000 000000
2014-12-28 01:25:42,0.12,3.81,0.00,23.73,28.02,30.64,4.76,27.04,1014.20,2026.99,2212.68,2355.62,2558.16,349.97,346.05,22.53,0000 0000 0000 0000 000000
2014-12-28 01:30:43,0.09,3.82,0.00,23.76,28.01,30.61,4.76,27.18,1014.21,2026.99,2211.78,2354.99,2557.70,350.22,346.00,22.56,0000 0000 0000 0000 000000
2014-12-28 01:35:45,0.11,3.82,0.00,23.77,28.00,30.62,4.78,27.14,1014.18,2026.99,2210.95,2354.23,2557.01,350.17,346.19,22.59,0000 0000 0000 0000 000000
2014-12-28 01:40:46,0.11,3.82,0.00,23.73,28.00,30.63,4.76,27.13,1014.18,2026.99,2210.08,2353.83,2556.21,350.20,346.26,22.62,0000 0000 0000 0000 000000
2014-12-28 01:45:47,0.11,3.83,0.00,23.70,28.00,30.63,4.72,27.12,1014.18,2026.99,2209.17,2353.07,2555.80,350.10,346.09,22.65,0000 0000 0000 0000 000000
2014-12-28 01:50:49,0.13,3.83,0.00,23.74,28.00,30.64,4.77,27.12,1014.14,2026.99,2208.29,2352.52,2555.04,350.01,345.98,22.68,0000 0000 0000 0000 000000
2014-12-28 01:55:50,0.08,3.83,0.00,23.72,28.00,30.62,4.76,27.17,1014.12,2026.99,2207.65,2352.00,2554.29,349.79,345.88,22.71,0000 0000 0000 0000 000000
2014-12-28 02:00:51,0.09,3.84,0.00,23.71,28.00,30.60,4.72,27.17,1014.13,2026.99,2206.96,2351.44,2553.87,349.26,345.27,22.74,0000 0000 0000 0000 000000
2014-12-28 02:05:53,0.09,3.84,0.00,23.74,27.99,30.58,4.75,27.11,1014.13,2026.99,2206.08,2350.96,2553.09,350.08,346.05,22.77,0000 0000 0000 0000 000000
2014-12-28 02:10:54,0.14,3.84,0.00,23.79,27.98,30.61,4.74,27.12,1013.94,2026.99,2205.16,2350.19,2552.64,349.94,345.94,22.80,0000 0000 0000 0000 000000
2014-12-28 02:15:55,0.08,3.85,0.00,23.76,27.97,30.58,4.75,27.03,1013.74,2027.00,2204.29,2349.84,2552.01,350.31,345.96,22.83,0000 0000 0000 0000 000000
2014-12-28 02:20:56,0.13,3.85,0.00,23.76,27.97,30.60,4.80,27.17,1013.69,2027.00,2203.56,2349.06,2551.33,350.43,346.44,22.86,0000 0000 0000 0000 000000
2014-12-28 02:25:57,0.11,3.85,0.00,23.78,27.97,30.59,4.78,27.08,1013.69,2027.00,2202.72,2348.47,2550.77,350.23,346.01,22.88,0000 0000 0000 0000 000000
2014-12-28 02:30:59,0.07,3.86,0.00,23.77,27.97,30.57,4.80,27.10,1013.69,2027.00,2201.92,2347.99,2550.03,350.16,345.88,22.91,0000 0000 0000 0000 000000
2014-12-28 02:36:00,0.14,3.86,0.00,23.75,27.97,30.58,4.76,27.12,1013.68,2027.00,2201.05,2347.30,2549.54,349.52,345.28,22.94,0000 0000 0000 0000 000000
2014-12-28 02:41:01,0.08,3.86,0.00,23.77,27.96,30.57,4.76,27.20,1013.65,2027.00,2200.18,2346.86,2548.91,350.47,346.15,22.97,0000 0000 0000 0000 000000
2014-12-28 02:46:03,0.12,3.87,0.00,23.78,27.95,30.55,4.71,27.39,1013.64,2027.00,2199.60,2346.13,2548.16,349.94,345.64,23.00,0000 0000 0000 0000 000000
2014-12-28 02:51:04,0.11,3.87,0.00,23.77,27.95,30.55,4.78,27.32,1013.47,2027.00,2198.73,2345.62,2547.59,349.99,345.42,23.03,0000 0000 0000 0000 000000
2014-12-28 02:56:05,0.06,3.87,0.00,23.76,27.95,30.53,4.70,27.26,1013.30,2027.01,2197.97,2345.02,2547.00,349.43,345.27,23.06,0000 0000 0000 0000 000000
2014-12-28 03:01:06,0.15,3.87,0.00,23.77,27.95,30.55,4.86,27.48,1013.22,2027.01,2197.10,2344.45,2546.28,350.64,346.12,23.09,0000 0000 0000 0000 000000
2014-12-28 03:06:07,0.07,3.88,0.00,23.72,27.95,30.54,4.79,27.43,1013.24,2027.03,2196.30,2343.98,2545.89,349.75,345.44,23.12,0000 0000 0000 0000 000000
2014-12-28 03:11:09,0.14,3.88,0.00,23.74,27.95,30.55,4.68,27.38,1013.27,2027.02,2195.51,2343.23,2545.07,349.50,345.27,23.15,0000 0000 0000 0000 000000
2014-12-28 03:16:10,0.10,3.88,0.00,23.76,27.95,30.55,4.73,27.26,1013.26,2027.02,2194.68,2342.79,2544.55,350.03,345.81,23.18,0000 0000 0000 0000 000000
2014-12-28 03:21:11,0.09,3.89,0.00,23.76,27.95,30.53,4.73,27.25,1013.27,2027.01,2193.88,2342.05,2543.99,349.87,345.62,23.21,0000 0000 0000 0000 000000
2014-12-28 03:26:13,0.12,3.89,0.00,23.75,27.95,30.55,4.84,27.23,1013.22,2027.04,2193.06,2341.63,2543.27,350.42,346.14,23.24,0000 0000 0000 0000 000000
2014-12-28 03:31:14,0.09,3.89,0.00,23.68,27.95,30.52,4.74,27.25,1013.20,2027.04,2192.26,2341.01,2542.75,350.13,345.72,23.26,0000 0000 0000 0000 000000
2014-12-28 03:36:15,0.13,3.90,0.00,23.57,27.95,30.55,4.73,27.29,1013.20,2027.05,2191.63,2340.52,2542.04,349.83,345.87,23.29,0000 0000 0000 0000 000000
2014-12-28 03:41:17,0.08,3.90,0.00,23.53,27.94,30.61,4.78,27.38,1013.20,2027.01,2190.63,2339.94,2541.34,350.72,346.60,23.32,0000 0000 0000 0000 000000
2014-12-28 03:46:18,0.09,3.90,0.00,23.55,27.94,30.63,4.78,27.38,1013.20,2027.01,2189.88,2339.16,2540.93,350.22,346.09,23.35,0000 0000 0000 0000 000000
2014-12-28 03:51:19,0.09,3.91,0.00,23.62,27.94,30.57,4.72,27.20,1013.19,2027.02,2189.05,2338.92,2540.13,349.16,345.01,23.38,0000 0000 0000 0000 000000
2014-12-28 03:56:20,0.11,3.91,0.00,23.64,27.95,30.53,4.76,27.39,1013.18,2027.06,2188.49,2338.20,2539.91,350.65,346.58,23.41,0000 0000 0000 0000 000000
2014-12-28 04:01:22,0.10,3.91,0.00,23.63,27.95,30.51,4.81,27.29,1013.19,2027.05,2187.71,2337.84,2539.10,350.13,345.93,23.44,0000 0000 0000 0000 000000
2014-12-28 04:06:23,0.09,3.92,0.00,23.66,27.95,30.50,4.76,27.30,1013.13,2027.02,2186.99,2337.09,2538.59,350.16,345.86,23.47,0000 0000 0000 0000 000000
2014-12-28 04:11:24,0.10,3.92,0.00,23.67,27.96,30.52,4.71,27.17,1013.04,2027.02,2186.17,2336.70,2538.01,349.70,345.50,23.50,0000 0000 0000 0000 000000
2014-12-28 04:16:26,0.11,3.92,0.00,23.69,27.97,30.52,4.76,27.30,1012.88,2027.02,2185.50,2336.02,2537.42,349.83,345.59,23.53,0000 0000 0000 0000 000000
2014-12-28 04:21:27,0.11,3.92,0.00,23.70,27.97,30.57,4.77,27.32,1012.77,2027.05,2184.67,2335.52,2536.99,349.72,345.25,23.56,0000 0000 0000 0000 000000
2014-12-28 04:26:28,0.06,3.93,0.00,23.75,27.97,30.57,4.74,27.38,1012.74,2027.05,2183.94,2335.01,2536.32,349.64,345.17,23.59,0000 0000 0000 0000 000000
2014-12-28 04:31:29,0.12,3.93,0.00,23.73,27.99,30.56,4.72,27.41,1012.74,2027.03,2183.08,2334.36,2535.78,349.53,345.04,23.62,0000 0000 0000 0000 000000
2014-12-28 04:36:30,0.08,3.93,0.00,23.74,28.00,30.59,4.80,27.34,1012.73,2027.02,2182.28,2333.96,2535.05,349.94,345.41,23.65,0000 0000 0000 0000 000000
2014-12-28 04:41:32,0.15,3.94,0.00,23.72,28.00,30.58,4.81,27.46,1012.73,2027.02,2181.43,2333.16,2534.43,349.89,345.48,23.67,0000 0000 0000 0000 000000
2014-12-28 04:46:34,0.04,3.94,0.00,23.72,28.00,30.59,4.77,27.50,1012.73,2027.02,2180.81,2332.87,2533.99,349.66,345.43,23.70,0000 0000 0000 0000 000000
2014-12-28 04:51:35,0.15,3.94,0.00,23.76,28.00,30.60,4.81,27.52,1012.71,2027.08,2180.02,2332.10,2533.39,349.93,345.63,23.73,0000 0000 0000 0000 000000
2014-12-28 04:56:36,0.06,3.95,0.00,23.73,28.00,30.59,4.79,27.41,1012.72,2027.15,2179.21,2331.92,2532.99,350.25,345.79,23.76,0000 0000 0000 0000 000000
2014-12-28 05:01:38,0.15,3.95,0.00,23.74,28.00,30.61,4.74,27.36,1012.72,2027.20,2178.66,2331.15,2532.31,349.53,345.11,23.79,0000 0000 0000 0000 000000
2014-12-28 05:06:39,0.05,3.95,0.00,23.75,28.00,30.61,4.76,27.39,1012.72,2027.19,2177.89,2330.79,2531.92,350.14,345.55,23.82,0000 0000 0000 0000 000000
2014-12-28 05:11:40,0.17,3.96,0.00,23.71,28.00,30.64,4.75,27.47,1012.72,2027.36,2177.09,2330.08,2531.17,350.22,345.65,23.85,0000 0000 0000 0000 000000
2014-12-28 05:16:42,0.04,3.96,0.00,23.76,28.00,30.63,4.76,27.53,1012.71,2027.31,2176.51,2329.85,2530.85,350.48,345.93,23.88,0000 0000 0000 0000 000000
2014-12-28 05:21:43,0.12,3.96,0.00,23.75,28.00,30.62,4.73,27.50,1012.71,2027.27,2175.87,2329.09,2530.08,350.07,345.40,23.91,0000 0000 0000 0000 000000
2014-12-28 05:26:44,0.10,3.97,0.00,23.76,28.00,30.62,4.74,27.30,1012.71,2027.60,2175.08,2328.93,2529.88,350.45,345.92,23.94,0000 0000 0000 0000 000000
2014-12-28 05:31:45,0.16,3.97,0.00,23.76,28.00,30.62,4.72,27.40,1012.71,2027.68,2174.60,2328.16,2529.11,349.52,344.99,23.97,0000 0000 0000 0000 000000
2014-12-28 05:36:46,0.04,3.97,0.00,23.79,28.00,30.61,4.73,27.27,1012.71,2027.84,2173.94,2327.97,2528.88,349.82,345.23,24.00,0000 0000 0000 0000 000000
2014-12-28 05:41:48,0.10,3.97,0.00,23.78,27.99,30.62,4.73,27.31,1012.71,2027.54,2173.08,2327.17,2528.06,350.20,345.63,24.03,0000 0000 0000 0000 000000
2014-12-28 05:46:49,0.11,3.98,0.00,23.83,27.99,30.63,4.77,27.43,1012.71,2027.89,2172.54,2326.98,2527.93,350.08,345.49,24.06,0000 0000 0000 0000 000000
2014-12-28 05:51:50,0.12,3.98,0.00,23.82,27.98,30.61,4.73,27.35,1012.71,2027.94,2171.97,2326.42,2527.18,350.41,345.76,24.08,0000 0000 0000 0000 000000
2014-12-28 05:56:51,0.06,3.98,0.00,23.83,27.97,30.59,4.72,27.45,1012.71,2027.94,2171.15,2326.00,2526.90,349.66,345.05,24.11,0000 0000 0000 0000 000000
2014-12-28 06:01:53,0.14,3.99,0.00,23.82,27.97,30.63,4.73,27.65,1012.59,2027.97,2170.42,2325.49,2526.10,349.90,345.23,24.14,0000 0000 0000 0000 000000
2014-12-28 06:06:54,0.02,3.99,0.00,23.85,27.97,30.64,4.81,27.74,1012.55,2027.99,2169.97,2325.02,2526.00,350.29,345.60,24.17,0000 0000 0000 0000 000000
2014-12-28 06:11:55,0.09,3.99,0.00,23.85,27.97,30.66,4.77,27.52,1012.66,2027.98,2169.26,2324.90,2525.45,350.31,345.74,24.20,0000 0000 0000 0000 000000
2014-12-28 06:16:57,0.07,3.99,0.00,23.84,27.97,30.67,4.76,27.58,1012.61,2027.98,2168.91,2324.13,2525.00,349.95,345.38,24.23,0000 0000 0000 0000 000000
2014-12-28 06:21:58,0.08,4.00,0.00,23.83,27.96,30.69,4.72,27.77,1012.35,2027.99,2168.10,2323.99,2524.58,349.50,344.84,24.26,0000 0000 0000 0000 000000
2014-12-28 06:27:00,0.07,4.00,0.00,23.84,27.95,30.65,4.76,27.53,1012.26,2027.99,2167.87,2323.56,2524.02,349.92,345.18,24.29,0000 0000 0000 0000 000000
2014-12-28 06:32:01,0.06,4.00,0.00,23.83,27.95,30.66,4.81,27.68,1012.31,2027.99,2167.08,2323.04,2523.93,350.20,345.48,24.32,0000 0000 0000 0000 000000
2014-12-28 06:37:02,0.07,4.00,0.00,23.83,27.95,30.64,4.76,27.50,1012.28,2027.99,2166.65,2322.94,2523.22,350.08,345.28,24.35,0000 0000 0000 0000 000000
2014-12-28 06:42:03,0.08,4.01,0.00,23.86,27.94,30.60,4.77,27.57,1012.25,2027.99,2166.02,2322.16,2522.99,350.09,345.28,24.38,0000 0000 0000 0000 000000
2014-12-28 06:47:05,0.07,4.01,0.00,23.86,27.94,30.58,4.73,27.57,1012.28,2027.99,2165.52,2322.00,2522.51,350.03,345.08,24.41,0000 0000 0000 0000 000000
2014-12-28 06:52:06,0.03,4.01,0.00,23.85,27.92,30.62,4.77,27.45,1012.25,2027.99,2165.00,2321.89,2522.02,349.80,345.30,24.44,0000 0000 0000 0000 000000
2014-12-28 06:57:07,0.11,4.01,0.00,23.82,27.92,30.64,4.77,27.68,1012.28,2027.99,2164.34,2321.11,2521.92,349.93,345.17,24.47,0000 0000 0000 0000 000000
2014-12-28 07:02:08,0.04,4.01,0.00,23.85,27.92,30.62,4.74,27.63,1012.24,2027.99,2163.97,2320.99,2521.28,350.09,345.20,24.49,0000 0000 0000 0000 000000
2014-12-28 07:07:09,0.09,4.01,0.00,23.84,27.92,30.62,4.78,27.78,1012.22,2028.00,2163.23,2320.70,2521.00,350.12,345.35,24.52,0000 0000 0000 0000 000000
2014-12-28 07:12:10,0.06,4.02,0.00,23.85,27.92,30.58,4.74,27.70,1012.22,2028.01,2162.94,2320.06,2520.77,350.28,345.50,24.55,0000 0000 0000 0000 000000
2014-12-28 07:17:12,0.07,4.02,0.00,23.85,27.90,30.58,4.86,27.70,1012.22,2028.02,2162.17,2319.99,2520.09,350.66,345.89,24.58,0000 0000 0000 0000 000000
2014-12-28 07:22:12,0.04,4.02,0.00,23.84,27.90,30.56,4.68,27.61,1012.22,2028.05,2161.98,2319.72,2520.00,349.57,344.96,24.61,0000 0000 0000 0000 000000
2014-12-28 07:27:13,0.08,4.02,0.00,23.87,27.90,30.57,4.73,27.77,1012.22,2028.06,2161.50,2319.12,2519.93,349.85,345.03,24.64,0000 0000 0000 0000 000000
2014-12-28 07:32:15,0.05,4.03,0.00,23.84,27.90,30.53,4.76,27.72,1012.24,2028.13,2161.01,2319.00,2519.34,349.75,345.25,24.67,0000 0000 0000 0000 000000
2014-12-28 07:37:16,0.07,4.03,0.00,23.84,27.90,30.56,4.76,27.86,1012.24,2028.20,2160.66,2318.87,2519.01,350.28,345.46,24.70,0000 0000 0000 0000 000000
2014-12-28 07:42:17,0.05,4.03,0.00,23.85,27.89,30.59,4.79,27.73,1012.22,2028.08,2160.02,2318.11,2518.91,350.59,345.85,24.73,0000 0000 0000 0000 000000
2014-12-28 07:47:18,0.05,4.03,0.00,23.87,27.88,30.61,4.80,27.93,1012.22,2028.17,2160.00,2318.00,2518.31,350.30,345.44,24.76,0000 0000 0000 0000 000000
2014-12-28 07:52:19,0.03,4.03,0.00,23.87,27.87,30.59,4.75,27.72,1012.22,2028.18,2159.64,2317.99,2518.01,349.82,345.00,24.79,0000 0000 0000 0000 000000
2014-12-28 07:57:21,0.06,4.03,0.00,23.84,27.87,30.55,4.69,27.75,1012.22,2028.12,2159.02,2317.58,2517.93,349.82,344.97,24.82,0000 0000 0000 0000 000000
2014-12-28 08:02:22,0.09,4.04,0.00,23.85,27.87,30.57,4.79,27.66,1012.22,2028.21,2158.77,2317.05,2517.28,350.17,345.55,24.85,0000 0000 0000 0000 000000
2014-12-28 08:07:23,0.05,4.04,0.00,23.87,27.87,30.55,4.76,27.74,1012.23,2028.27,2158.05,2317.00,2517.01,349.96,344.94,24.88,0000 0000 0000 0000 000000
2014-12-28 08:12:24,0.02,4.04,0.00,23.89,27.87,30.56,4.68,27.88,1012.26,2028.15,2157.97,2316.82,2516.92,349.39,344.53,24.90,0000 0000 0000 0000 000000
2014-12-28 08:17:26,0.13,4.04,0.00,23.90,27.86,30.52,4.71,27.72,1012.38,2028.22,2157.28,2316.14,2516.28,350.27,345.45,24.93,0000 0000 0000 0000 000000
2014-12-28 08:22:27,0.08,4.04,0.00,23.89,27.85,30.55,4.73,27.40,1012.63,2028.42,2157.01,2316.00,2516.01,350.29,345.53,24.96,0000 0000 0000 0000 000000
2014-12-28 08:27:29,0.08,4.05,0.00,23.90,27.85,30.57,4.75,27.71,1012.64,2028.73,2156.87,2316.00,2515.99,350.46,345.73,24.99,0000 0000 0000 0000 000000
2014-12-28 08:32:30,0.06,4.05,0.00,23.90,27.85,30.52,4.75,27.77,1012.69,2028.89,2156.13,2315.89,2515.89,349.56,344.69,25.02,0000 0000 0000 0000 000000
2014-12-28 08:37:32,0.07,4.05,0.00,23.89,27.85,30.53,4.71,27.62,1012.71,2028.78,2155.99,2315.14,2515.14,349.30,344.71,25.05,0000 0000 0000 0000 000000
2014-12-28 08:42:33,0.04,4.05,0.00,23.93,27.85,30.52,4.81,27.63,1012.71,2028.67,2155.43,2315.00,2515.00,350.48,345.86,25.08,0000 0000 0000 0000 000000
2014-12-28 08:47:34,0.02,4.05,0.00,23.93,27.84,30.51,4.78,27.68,1012.71,2028.79,2155.02,2314.95,2514.91,349.67,344.89,25.11,0000 0000 0000 0000 000000
2014-12-28 08:52:35,0.10,4.05,0.00,23.94,27.83,30.53,4.70,27.67,1012.71,2028.80,2154.91,2314.33,2514.18,349.41,344.68,25.14,0000 0000 0000 0000 000000
2014-12-28 08:57:36,0.08,4.06,0.00,23.96,27.83,30.56,4.81,27.63,1012.71,2028.91,2154.19,2314.04,2514.00,350.76,345.86,25.17,0000 0000 0000 0000 000000
2014-12-28 09:02:37,-0.00,4.06,0.00,23.98,27.82,30.58,4.75,27.58,1012.71,2028.89,2153.96,2313.99,2513.94,350.11,345.33,25.20,0000 0000 0000 0000 000000
2014-12-28 09:07:39,0.12,4.06,0.00,23.99,27.82,30.59,4.75,27.54,1012.69,2028.94,2153.28,2313.68,2513.39,350.25,345.51,25.23,0000 0000 0000 0000 000000
2014-12-28 09:12:40,0.05,4.06,0.00,23.99,27.82,30.60,4.76,27.73,1012.68,2028.96,2153.00,2313.08,2513.02,350.00,345.28,25.26,0000 0000 0000 0000 000000
2014-12-28 09:17:41,0.03,4.06,0.00,24.00,27.82,30.61,4.76,27.53,1012.71,2028.98,2152.71,2313.00,2513.00,349.68,344.91,25.29,0000 0000 0000 0000 000000
2014-12-28 09:22:43,0.04,4.06,0.00,23.97,27.82,30.60,4.72,27.68,1012.70,2028.96,2152.04,2312.97,2512.73,349.54,344.85,25.31,0000 0000 0000 0000 000000
2014-12-28 09:27:44,0.08,4.07,0.00,24.01,27.82,30.64,4.75,27.46,1012.54,2028.98,2151.97,2312.50,2512.10,349.27,344.54,25.34,0000 0000 0000 0000 000000
2014-12-28 09:32:45,0.07,4.07,0.00,23.98,27.82,30.66,4.79,27.71,1012.33,2028.98,2151.31,2312.04,2512.00,349.94,344.96,25.37,0000 0000 0000 0000 000000
2014-12-28 09:37:47,0.00,4.07,0.00,24.03,27.82,30.64,4.75,27.59,1012.27,2028.99,2150.99,2312.00,2511.97,349.91,344.98,25.40,0000 0000 0000 0000 000000
2014-12-28 09:42:48,0.05,4.07,0.00,24.04,27.82,30.61,4.76,27.57,1012.34,2028.99,2150.55,2311.93,2511.50,350.02,344.92,25.43,0000 0000 0000 0000 000000
2014-12-28 09:47:49,0.09,4.07,0.00,24.04,27.82,30.63,4.73,27.43,1012.29,2028.99,2150.06,2311.50,2511.09,349.63,344.49,25.46,0000 0000 0000 0000 000000
2014-12-28 09:52:50,0.01,4.07,0.00,24.04,27.82,30.63,4.72,27.48,1012.29,2028.99,2150.00,2311.03,2511.00,349.65,344.63,25.49,0000 0000 0000 0000 000000
2014-12-28 09:57:52,0.05,4.08,0.00,24.06,27.82,30.63,4.70,27.43,1012.27,2028.99,2149.48,2310.99,2510.91,349.82,344.85,25.52,0000 0000 0000 0000 000000
2014-12-28 10:02:53,0.04,4.08,0.00,24.08,27.81,30.67,4.65,27.32,1012.23,2028.99,2149.02,2310.93,2510.35,349.91,344.93,25.55,0000 0000 0000 0000 000000
2014-12-28 10:07:54,0.06,4.08,0.00,24.06,27.80,30.65,4.70,27.27,1012.23,2028.99,2148.93,2310.34,2510.02,349.46,344.28,25.58,0000 0000 0000 0000 000000
2014-12-28 10:12:56,0.05,4.08,0.00,24.07,27.80,30.64,4.72,27.38,1012.22,2029.00,2148.28,2310.02,2510.00,350.15,344.93,25.61,0000 0000 0000 0000 000000
2014-12-28 10:17:57,0.01,4.08,0.00,24.07,27.80,30.68,4.75,27.52,1012.22,2029.01,2148.00,2310.00,2509.95,350.15,344.89,25.64,0000 0000 0000 0000 000000
2014-12-28 10:22:58,0.03,4.08,0.00,24.08,27.80,30.68,4.72,27.50,1012.22,2029.00,2147.97,2309.98,2509.35,349.87,344.83,25.67,0000 0000 0000 0000 000000
2014-12-28 10:28:00,0.11,4.08,0.00,24.07,27.80,30.70,4.72,27.57,1012.22,2029.01,2147.30,2309.51,2509.02,349.87,344.75,25.70,0000 0000 0000 0000 000000
2014-12-28 10:33:01,0.02,4.09,0.00,24.08,27.80,30.66,4.70,27.62,1012.22,2029.01,2146.99,2309.02,2508.98,349.89,344.89,25.72,0000 0000 0000 0000 000000
2014-12-28 10:38:02,0.05,4.09,0.00,24.09,27.78,30.65,4.72,27.57,1012.22,2029.01,2146.65,2309.00,2508.70,349.59,344.64,25.75,0000 0000 0000 0000 000000
2014-12-28 10:43:04,0.04,4.09,0.00,24.11,27.77,30.67,4.76,27.52,1012.23,2029.01,2146.05,2308.96,2508.08,350.30,345.20,25.78,0000 0000 0000 0000 000000
2014-12-28 10:48:05,0.04,4.09,0.00,24.08,27.77,30.69,4.75,27.52,1012.22,2029.02,2145.99,2308.61,2508.01,350.11,345.14,25.81,0000 0000 0000 0000 000000
2014-12-28 10:53:07,0.04,4.09,0.00,24.08,27.77,30.67,4.78,27.57,1012.23,2029.04,2145.87,2308.11,2507.99,350.79,345.64,25.84,0000 0000 0000 0000 000000
2014-12-28 10:58:08,0.06,4.09,0.00,24.08,27.77,30.70,4.72,27.45,1012.23,2029.04,2145.13,2308.00,2507.73,349.93,344.98,25.87,0000 0000 0000 0000 000000
2014-12-28 11:03:09,0.03,4.09,0.00,24.11,27.76,30.69,4.76,27.61,1012.23,2029.10,2144.99,2307.98,2507.13,350.10,344.93,25.90,0000 0000 0000 0000 000000
2014-12-28 11:08:11,0.07,4.10,0.00,24.11,27.75,30.67,4.70,27.48,1012.23,2029.10,2144.58,2307.59,2507.00,349.96,344.97,25.93,0000 0000 0000 0000 000000
2014-12-28 11:13:12,0.05,4.10,0.00,24.12,27.75,30.66,4.71,27.29,1012.23,2029.12,2144.03,2307.06,2506.91,349.81,344.67,25.96,0000 0000 0000 0000 000000
2014-12-28 11:18:13,0.08,4.10,0.00,24.10,27.75,30.69,4.73,27.48,1012.22,2029.24,2143.96,2307.00,2506.35,350.48,345.23,25.99,0000 0000 0000 0000 000000
2014-12-28 11:23:14,0.11,4.10,0.00,24.11,27.75,30.66,4.67,27.58,1012.22,2029.51,2143.27,2306.92,2506.03,349.24,344.01,26.02,0000 0000 0000 0000 000000
2014-12-28 11:28:15,0.06,4.11,0.00,24.12,27.74,30.68,4.76,27.52,1012.22,2029.39,2142.72,2306.12,2505.75,350.33,345.01,26.05,0000 0000 0000 0000 000000
2014-12-28 11:33:16,0.04,4.11,0.00,24.12,27.73,30.65,4.71,27.48,1012.22,2029.32,2142.03,2305.98,2505.05,349.87,344.79,26.08,0000 0000 0000 0000 000000
2014-12-28 11:38:18,0.12,4.11,0.00,24.10,27.72,30.65,4.74,27.60,1012.22,2029.39,2141.52,2305.42,2504.88,349.54,344.51,26.11,0000 0000 0000 0000 000000
2014-12-28 11:43:19,0.08,4.11,0.00,24.12,27.72,30.64,4.72,27.56,1012.20,2029.38,2140.98,2305.01,2504.08,350.16,345.02,26.13,0000 0000 0000 0000 000000
2014-12-28 11:48:20,0.11,4.12,0.00,24.12,27.72,30.63,4.75,27.50,1012.22,2029.62,2140.23,2304.83,2503.98,350.05,344.72,26.16,0000 0000 0000 0000 000000
2014-12-28 11:53:21,0.12,4.12,0.00,24.13,27.72,30.63,4.80,27.41,1012.23,2029.84,2139.96,2304.10,2503.59,350.45,345.54,26.19,0000 0000 0000 0000 000000
2014-12-28 11:58:23,0.06,4.12,0.00,24.12,27.72,30.64,4.77,27.33,1012.25,2029.87,2139.16,2303.98,2503.02,349.96,344.94,26.22,0000 0000 0000 0000 000000
2014-12-28 12:03:24,0.13,4.12,0.00,24.15,27.72,30.64,4.77,27.57,1012.24,2029.85,2138.68,2303.37,2502.54,349.64,344.79,26.25,0000 0000 0000 0000 000000
2014-12-28 12:08:26,0.05,4.13,0.00,24.14,27.71,30.64,4.71,27.29,1012.38,2029.87,2137.94,2302.99,2502.00,350.29,345.41,26.28,0000 0000 0000 0000 000000
2014-12-28 12:13:27,0.11,4.13,0.00,24.16,27.70,30.64,4.68,27.47,1012.65,2029.81,2137.13,2302.50,2501.40,350.03,345.02,26.31,0000 0000 0000 0000 000000
2014-12-28 12:18:29,0.08,4.13,0.00,24.15,27.70,30.65,4.73,27.39,1012.34,2029.86,2136.67,2302.00,2500.99,349.45,344.34,26.34,0000 0000 0000 0000 000000
2014-12-28 12:23:30,0.12,4.14,0.00,24.17,27.70,30.63,4.76,27.38,1012.22,2029.93,2135.99,2301.59,2500.32,350.32,345.14,26.37,0000 0000 0000 0000 000000
2014-12-28 12:28:32,0.09,4.14,0.00,24.17,27.70,30.63,4.81,27.58,1012.22,2029.93,2135.16,2301.01,2499.90,350.31,345.18,26.40,0000 0000 0000 0000 000000
2014-12-28 12:33:33,0.12,4.14,0.00,24.16,27.70,30.64,4.70,27.34,1012.22,2029.95,2134.60,2300.63,2499.12,349.78,344.58,26.43,0000 0000 0000 0000 000000
2014-12-28 12:38:35,0.10,4.15,0.00,24.16,27.70,30.64,4.77,27.45,1012.23,2029.97,2133.70,2300.01,2498.68,350.59,345.26,26.46,0000 0000 0000 0000 000000
2014-12-28 12:43:36,0.09,4.15,0.00,24.16,27.69,30.61,4.72,27.56,1012.24,2029.97,2132.99,2299.44,2498.02,349.43,344.29,26.49,0000 0000 0000 0000 000000
2014-12-28 12:48:37,0.09,4.15,0.00,24.17,27.68,30.63,4.77,27.61,1012.22,2029.99,2132.20,2298.99,2497.65,350.56,345.40,26.52,0000 0000 0000 0000 000000
2014-12-28 12:53:39,0.12,4.15,0.00,24.17,27.67,30.63,4.75,27.59,1012.22,2029.98,2131.54,2298.30,2497.00,350.33,345.05,26.55,0000 0000 0000 0000 000000
2014-12-28 12:58:40,0.08,4.16,0.00,24.20,27.67,30.61,4.72,27.53,1012.22,2029.97,2130.75,2297.96,2496.22,349.39,344.19,26.57,0000 0000 0000 0000 000000